Weather History for Mena, AR

Change the Weather History Date:

Tuesday, February 5, 2013

  Actual Average (KFSM) Record (KFSM)
Temperature  
Mean Temperature 54 °F -  
Max Temperature 71 °F 51 °F 76 °F (1967)
Min Temperature 37 °F 31 °F 7 °F (1886)
Degree Days  
Heating Degree Days 11    
Growing Degree Days 4 (Base 50)    
Moisture  
Dew Point 44 °F    
Average Humidity 81    
Maximum Humidity 100    
Minimum Humidity 25    
Precipitation  
Precipitation 0.02 in - - ()
Sea Level Pressure  
Sea Level Pressure 29.99 in    
Wind  
Wind Speed 0 mph (NW)    
Max Wind Speed 6 mph    
Max Gust Speed -    
Visibility 6 miles    
Events Fog    
Averages and records for this station are not official NWS values.
T = Trace of Precipitation, MM = Missing Value Source: NWS Daily Summary

Daily Weather History Graph

Daily Weather History Graph

Search for Another Location

Airport:

Trip Planner

Search our weather history database for the weather conditions in past years. The results will help you decide how hot, cold, wet, or windy it might be!

Date:

Astronomy

Feb. 05, 2013 Rise Set
Actual Time 7:11 AM CST 5:50 PM CST
Civil Twilight 6:45 AM CST 6:16 PM CST
Nautical Twilight 6:15 AM CST 6:46 PM CST
Astronomical Twilight 5:45 AM CST 7:16 PM CST
Moon 2:49 AM CST (2/5) 1:13 PM CST (2/5)
Length of Visible Light 11h 31m
Length of Day
10h 39m
Waning Crescent, 26% of the Moon is Illuminated
Feb 5
Waning Crescent
Feb 10
New
Feb 17
First Quarter
Feb 25
Full
Mar 4
Last Quarter

Hourly Weather History & Observations

Time (CST) Temp. Dew Point Humidity Pressure Visibility Wind Dir Wind Speed Gust Speed Precip Events Conditions
12:15 AM 46.4 °F 46.4 °F 100% 29.95 in 0.2 mi Calm Calm - N/A Fog Fog
12:35 AM 46.4 °F 46.4 °F 100% 29.95 in 0.2 mi Calm Calm - N/A Fog Fog
12:55 AM 46.4 °F 46.4 °F 100% 29.95 in 0.2 mi Calm Calm - N/A Fog Fog
1:15 AM 46.4 °F 46.4 °F 100% 29.94 in 0.2 mi Calm Calm - N/A Fog Fog
1:35 AM 46.4 °F 46.4 °F 100% 29.94 in 0.2 mi Calm Calm - N/A Fog Fog
1:55 AM 46.4 °F 46.4 °F 100% 29.94 in 0.2 mi Calm Calm - N/A Fog Fog
2:15 AM 44.6 °F 44.6 °F 100% 29.94 in 0.2 mi Calm Calm - N/A Fog Fog
2:35 AM 44.6 °F 44.6 °F 100% 29.93 in 0.2 mi Calm Calm - N/A Fog Fog
2:55 AM 44.6 °F 44.6 °F 100% 29.93 in 0.2 mi Calm Calm - N/A Fog Fog
3:15 AM 44.6 °F 44.6 °F 100% 29.94 in 0.2 mi Calm Calm - N/A Fog Fog
3:35 AM 44.6 °F 44.6 °F 100% 29.94 in 0.2 mi Calm Calm - N/A Fog Fog
3:55 AM 42.8 °F 42.8 °F 100% 29.94 in 0.2 mi Calm Calm - N/A Fog Fog
4:15 AM 42.8 °F 42.8 °F 100% 29.94 in 0.2 mi Calm Calm - N/A Fog Fog
4:35 AM 42.8 °F 42.8 °F 100% 29.94 in 0.2 mi Calm Calm - N/A Fog Fog
4:55 AM 42.8 °F 42.8 °F 100% 29.94 in 0.2 mi Calm Calm - N/A Fog Fog
5:15 AM 42.8 °F 42.8 °F 100% 29.94 in 0.2 mi Calm Calm - N/A Fog Fog
5:35 AM 42.8 °F 42.8 °F 100% 29.95 in 0.2 mi Calm Calm - N/A Fog Fog
5:55 AM 42.8 °F 42.8 °F 100% 29.95 in 0.2 mi Calm Calm - N/A Fog Fog
6:15 AM 41.0 °F 41.0 °F 100% 29.96 in 0.2 mi Calm Calm - N/A Fog Fog
6:35 AM 41.0 °F 41.0 °F 100% 29.98 in 0.2 mi Calm Calm - N/A Fog Fog
6:55 AM 41.0 °F 41.0 °F 100% 29.99 in 0.2 mi Calm Calm - N/A Fog Fog
7:15 AM 39.2 °F 39.2 °F 100% 29.99 in 0.2 mi Calm Calm - N/A Fog Fog
7:35 AM 37.4 °F 37.4 °F 100% 29.99 in 0.2 mi Calm Calm - N/A Fog Fog
7:55 AM 37.4 °F 37.4 °F 100% 30.01 in 0.2 mi Calm Calm - N/A Fog Fog
8:15 AM 39.2 °F 39.2 °F 100% 30.01 in 0.2 mi Calm Calm - N/A Fog Fog
8:35 AM 41.0 °F 41.0 °F 100% 30.01 in 0.2 mi Calm Calm - N/A Fog Fog
8:55 AM 41.0 °F 41.0 °F 100% 30.02 in 0.5 mi Calm Calm - N/A Fog Fog
9:15 AM 42.8 °F 42.8 °F 100% 30.02 in 0.8 mi Calm Calm - N/A   Overcast
9:35 AM 44.6 °F 44.6 °F 100% 30.03 in 2.5 mi Calm Calm - N/A   Overcast
9:55 AM 46.4 °F 46.4 °F 100% 30.03 in 10.0 mi Calm Calm - N/A   Scattered Clouds
10:15 AM 50.0 °F 50.0 °F 100% 30.03 in 10.0 mi Calm Calm - N/A   Clear
10:35 AM 51.8 °F 51.8 °F 100% 30.04 in 10.0 mi Calm Calm - N/A   Clear
10:55 AM 53.6 °F 53.6 °F 100% 30.04 in 10.0 mi Calm Calm - N/A   Clear
11:15 AM 53.6 °F 53.6 °F 100% 30.04 in 10.0 mi NE 3.5 mph - N/A   Clear
11:35 AM 59.0 °F 57.2 °F 94% 30.04 in 10.0 mi Calm Calm - N/A   Clear
11:55 AM 62.6 °F 50.0 °F 63% 30.03 in 10.0 mi Calm Calm - N/A   Clear
12:15 PM 64.4 °F 48.2 °F 56% 30.02 in 10.0 mi Calm Calm - N/A   Clear
12:35 PM 66.2 °F 46.4 °F 49% 30.01 in 10.0 mi Calm Calm - 0.02 in   Clear
12:55 PM 68.0 °F 44.6 °F 43% 30.00 in 10.0 mi Calm Calm - 0.02 in   Clear
1:15 PM 68.0 °F 42.8 °F 40% 30.00 in 10.0 mi Calm Calm - N/A   Clear
1:35 PM 69.8 °F 41.0 °F 35% 29.99 in 10.0 mi West 3.5 mph - N/A   Clear
1:55 PM 69.8 °F 37.4 °F 31% 29.98 in 10.0 mi NW 5.8 mph - N/A   Clear
2:15 PM 69.8 °F 37.4 °F 31% 29.98 in 10.0 mi West 3.5 mph - N/A   Clear
2:35 PM 69.8 °F 33.8 °F 27% 29.98 in 10.0 mi WSW 3.5 mph - N/A   Clear
2:55 PM 71.6 °F 33.8 °F 25% 29.97 in 10.0 mi Calm Calm - N/A   Clear
3:15 PM 71.6 °F 35.6 °F 27% 29.97 in 10.0 mi Calm Calm - N/A   Clear
3:35 PM 69.8 °F 35.6 °F 28% 29.97 in 10.0 mi West 4.6 mph - N/A   Clear
3:55 PM 71.6 °F 37.4 °F 29% 29.97 in 10.0 mi Calm Calm - N/A   Clear
4:15 PM 69.8 °F 37.4 °F 31% 29.97 in 10.0 mi Calm Calm - N/A   Clear
4:35 PM 69.8 °F 39.2 °F 33% 29.97 in 10.0 mi Calm Calm - N/A   Clear
5:15 PM 68.0 °F 41.0 °F 37% 29.98 in 10.0 mi North 3.5 mph - N/A   Scattered Clouds
5:35 PM 66.2 °F 42.8 °F 43% 29.98 in 10.0 mi North 3.5 mph - N/A   Mostly Cloudy
5:55 PM 64.4 °F 44.6 °F 49% 29.98 in 10.0 mi NNW 4.6 mph - N/A   Scattered Clouds
6:15 PM 62.6 °F 44.6 °F 52% 29.99 in 10.0 mi Calm Calm - N/A   Scattered Clouds
6:35 PM 60.8 °F 44.6 °F 55% 30.00 in 10.0 mi Calm Calm - N/A   Clear
6:55 PM 59.0 °F 46.4 °F 63% 30.01 in 10.0 mi Calm Calm - N/A   Clear
7:15 PM 53.6 °F 44.6 °F 72% 30.02 in 10.0 mi Calm Calm - N/A   Clear
8:15 PM 50.0 °F 48.2 °F 94% 30.03 in 10.0 mi Calm Calm - N/A   Clear
8:35 PM 48.2 °F 46.4 °F 93% 30.04 in 10.0 mi Calm Calm - N/A   Clear
8:55 PM 48.2 °F 48.2 °F 100% 30.04 in 10.0 mi Calm Calm - N/A   Scattered Clouds
9:15 PM 46.4 °F 46.4 °F 100% 30.05 in 10.0 mi Calm Calm - N/A   Scattered Clouds
9:35 PM 46.4 °F 46.4 °F 100% 30.06 in 10.0 mi Calm Calm - N/A   Scattered Clouds
9:55 PM 46.4 °F 46.4 °F 100% 30.06 in 10.0 mi Calm Calm - N/A   Clear
10:15 PM 46.4 °F 46.4 °F 100% 30.06 in 10.0 mi Calm Calm - N/A   Clear
10:35 PM 46.4 °F 46.4 °F 100% 30.06 in 7.0 mi Calm Calm - N/A   Clear
10:55 PM 44.6 °F 44.6 °F 100% 30.06 in 7.0 mi Calm Calm - N/A   Clear
11:15 PM 44.6 °F 44.6 °F 100% 30.06 in 10.0 mi Calm Calm - N/A   Clear
11:35 PM 44.6 °F 44.6 °F 100% 30.06 in 2.5 mi Calm Calm - N/A   Clear
11:55 PM 44.6 °F 44.6 °F 100% 30.06 in 4.0 mi Calm Calm - N/A   Clear